This is the latest recevied weather packets stored in our database for station/object WW3TRG. If no packets are shown the sender has not sent any weather packets the latest 10 day(s).
| Time | Temp. | Humidity | Pressure | Rain* | Wind** | Luminosity | Snow |
|---|---|---|---|---|---|---|---|
| 1777945112 | 12.78° C | 79% | 1009 hPa | 0 mm | - | 0 W/m² | - |
| 1777944809 | 12.78° C | 80% | 1009.2 hPa | 0 mm | - | 0 W/m² | - |
| 1777944508 | 12.78° C | 80% | 1009.2 hPa | 0 mm | - | 0 W/m² | - |
| 1777944206 | 12.78° C | 79% | 1009 hPa | 0 mm | - | 0 W/m² | - |
| 1777943901 | 12.78° C | 79% | 1009 hPa | 0 mm | - | 0 W/m² | - |
| 1777943598 | 12.78° C | 78% | 1008.9 hPa | 0 mm | - | 0 W/m² | - |
| 1777943294 | 13.33° C | 78% | 1008.8 hPa | 0 mm | - | 0 W/m² | - |
| 1777942990 | 13.33° C | 76% | 1008.9 hPa | 0 mm | - | 0 W/m² | - |
| 1777942687 | 13.33° C | 77% | 1008.6 hPa | 0 mm | - | 0 W/m² | - |
| 1777942384 | 13.89° C | 77% | 1008.6 hPa | 0 mm | - | 0 W/m² | - |
| 1777942081 | 13.89° C | 76% | 1008.6 hPa | 0 mm | - | 0 W/m² | - |
| 1777941777 | 13.89° C | 75% | 1008.5 hPa | 0 mm | - | 0 W/m² | - |
| 1777941475 | 13.89° C | 74% | 1008.8 hPa | 0 mm | - | 0 W/m² | - |
| 1777941172 | 14.44° C | 74% | 1008.7 hPa | 0 mm | - | 0 W/m² | - |
| 1777940868 | 14.44° C | 72% | 1008.5 hPa | 0 mm | - | 0 W/m² | - |
| 1777940565 | 15° C | 71% | 1008.5 hPa | 0 mm | - | 0 W/m² | - |
| 1777940263 | 15° C | 70% | 1008.4 hPa | 0 mm | - | 0 W/m² | - |
| 1777939961 | 15.56° C | 69% | 1008.3 hPa | 0 mm | - | 0 W/m² | - |
| 1777939657 | 15.56° C | 69% | 1008.4 hPa | 0 mm | - | 0 W/m² | - |
| 1777939355 | 16.11° C | 67% | 1008.2 hPa | 0 mm | - | 0 W/m² | - |
| 1777939051 | 16.11° C | 63% | 1008 hPa | 0 mm | - | 0 W/m² | - |
| 1777938748 | 16.11° C | 66% | 1008.1 hPa | 0 mm | - | 1 W/m² | - |
| 1777938445 | 17.22° C | 63% | 1008.2 hPa | 0 mm | - | 4 W/m² | - |
| 1777938142 | 17.22° C | 62% | 1008.1 hPa | 0 mm | - | 6 W/m² | - |
| 1777937838 | 17.78° C | 60% | 1008 hPa | 0 mm | - | 9 W/m² | - |
* Rain latest hour (hover to see other rain measurements)
** Current wind speed in m/s (hover to see current wind gust speed)